Starlink 33906

operational
NORAD ID: 63785 Int'l Des: 2025-091 Owner: SPXS Country: US Constellation: starlink
LEOCIRCULAR

Über Starlink 33906

Beschreibung wird geladen...

Live-Position

3D-Globus wird geladen...

Nächste Überflüge

Höhenverlauf

Altitude vs Time

uPlot chart will show altitude changes over time

Zweizeiliger Elementsatz

1 63785U 25091L 25351.77769652 .00027393 00000-0 10006-2 0 9994
2 63785 43.0029 155.2307 0002422 289.1195 70.9394 15.27599905 36325
Epoch: 17. Dez. 2025 • Age: 12 hours

Aktueller Status

Höhe 485.8 km
Geschwindigkeit 7.62 km/s
Subsatellitenpunkt -14.73°S, 163.66°E
Startdatum 2. Mai 2025
Alter 0.6 years
Typ internet

Technische Details

Klassifizierung Payload
Masse 575.00 kg
Trockenmasse 530.00 kg
Gesamtmasse 575.00 kg
Länge 0.30 m
Durchmesser 4.10 m
Spannweite 29.00 m
Form Box + pan
Hersteller SPXS
Bus-Typ Starlink V2MO
Phasenstatus In Orbit
Besitzer/Staat SPXS/US

Große Konstellationen

Loading constellations...